map of MDZ home
Great Circle Mapper logo
MDZ - Airport
Location
City:  Mendoza, Mendoza, Argentina
Name:Governor Francisco Gabrielli International Airport
Old (Alt.):El Plumerillo International Airport
ICAO / IATA:SAME / MDZ

Details
Type:Airport (Aerodrome, Airfield)
Use:Public/Civil, Military, International (customs port of entry)
Latitude:3249'54"S (-32.831716)
Longitude:6847'34"W (-68.792855)
Datum:WGS 1984
Elevation:2310 ft (704 m)
Variation:0.01E (WMM2015 magnetic declination)
-0.16 annual change
Runways:1
Longest:9151 × 177 ft (2789 × 54 m), paved

Time
Time Zone:UTC-3
Local Time:

Weather
METAR:SAME 290200Z 18005KT CAVOK 14/04 Q1017
TAF:SAME 282300Z 2900/2924 16005KT 9999 SCT040 SCT080 TN02/2911Z TX17/2919Z PROB40 2911/2914 8000 HZFU

Related Locations
Nearby:
Farthest:LHK: 12393 mi / 19944 km
Guanghua, Hubei, CN

Find:

   beyond  
but within

Other Information
Maps:
NOTAMs:
Links:
Sources:

  
flag of Argentina
flag of Mendoza
  

Sectional Chart

Flight Planning
at skyvector.com

Satellite Image

Google Maps Satellite view

 

Copyright © 2004-2015 Karl L. Swartz. All rights reserved.
The Great Circle Mapper name and logo are trademarks of the Great Circle Mapper.
All other trademarks mentioned herein belong to their respective owners.
Please see credits for attibutions and further copyright information.

  Follow gcmap on Facebook Follow gcmap on Twitter Follow gcmap on Google+

hCard Microformat

Geo Microformat